[[{"header":{"parameterUnit":"m.s-1","parameterCategory":1,"la1":30.2991,"la2":30.254,"lo1":-89.0895,"lo2":-89.0444,"dy":0.0017,"dx":0.0017,"nx":28,"ny":28,"refTime":"2024-10-15T21:00:00:Z","depth":0,"parameterNumber":2,"parameterNumberName":"U-component_of_WINDS"},"data":[0,0,0,0,0,0,0,0,0,0,0,0,0,0,0,0,0,0,0,0,0,0,0,0,0,0,0,0,0,0,0,0,0,0,0,0,0,0,0,0,0,0,0,0,0,0,0,0,0,0,0,0,0,0,0,0,0,0,-2.0052,-2.0051,0,-2.0022,-2.0022,-2.0021,-1.9958,-1.9957,-1.9956,-1.9955,-1.9926,-1.9927,-1.9927,0,0,0,0,0,0,0,0,0,0,0,0,0,-2.0055,-2.0056,-2.0052,-2.0051,-2.0051,-2.0022,-2.0022,-2.0021,-1.9959,-1.9957,-1.9956,-1.9954,-1.9926,-1.9926,-1.9927,0,0,0,0,0,0,0,0,0,0,0,0,0,-2.0043,-2.0056,-2.0052,-2.0016,-2.0013,-2.0022,-2.0022,-2.0021,-1.9959,-1.9957,-1.9955,-1.9953,-1.9926,-1.9926,-1.9927,-1.9969,0,0,-1.9929,-1.9929,0,0,0,0,0,0,0,0,-2.0044,-2.0043,-2.0022,-2.0019,-2.0015,-1.9992,-2.0012,-2.0004,-1.9959,-1.9979,-1.9955,-1.9952,-1.995,-1.9948,-1.9947,-1.9968,-1.9967,-1.9929,-1.9929,-1.993,-1.993,0,0,0,0,0,0,0,-2.0045,-2.0044,-2.004,-2.0021,-2.0017,-2.0002,-1.9998,-2.0011,-1.9976,-1.9977,-1.9973,-1.997,-1.9947,-1.9946,-1.9946,-1.9966,-1.9929,-1.993,-1.993,-1.993,-2.0022,-2.0024,0,0,0,0,0,0,-2.005,-2.0045,-2.0041,-2.0039,-2.0025,-2.0004,-1.9999,-2.0001,-1.9975,-1.997,-1.9972,-1.9967,-1.9946,-1.9945,-1.9945,-1.9994,-1.993,-1.993,-1.9931,-2.002,-2.0022,-2.0025,0,0,0,0,0,0,-2.0051,-2.0051,-2.0042,-2.0041,-2.0038,-2.0006,-2.0008,-2.0002,-2.0001,-1.9971,-1.9965,-1.9977,-1.9945,-1.9944,-1.9964,-1.9992,-1.9931,-1.9931,-2.0018,-2.0021,-2.0024,-2.0091,0,0,0,0,0,0,-2.0051,-2.0051,-2.0066,-2.0041,-2.0039,-2.0062,-2.001,-2.0002,-2.0002,-1.9996,-1.9974,-1.9969,-1.9943,-1.9963,-1.9965,-1.9991,-1.9932,-2.0015,-2.0019,-2.0023,-2.0087,-2.0096,-2.0105,0,0,0,0,0,-2.0051,-2.0087,-2.0068,-2.0067,-2.0057,-2.0063,-2.0062,-2.0031,-2.0004,-2.002,-2.0001,-1.997,-1.9988,-1.9966,-1.9967,-1.9994,-2.0013,-2.0018,-2.0022,-2.0082,-2.0094,-2.0105,0,0,0,0,0,0,-2.0116,-2.0083,-2.0061,-2.0089,-2.008,-2.0053,-2.0071,-2.0044,-2.0042,-2.0037,-1.9999,-1.9994,-2.002,-2.0009,-1.9985,-2.0034,-1.9996,-2.0001,-2.0041,-2.0052,-2.0061,-2.0064,-1.9932,0,0,0,0,0,-2.0134,-2.0141,-2.0111,-2.0139,-2.0135,-2.0104,-2.0106,-2.0083,-2.0071,-2.0067,-2.0049,-2.004,-2.0044,-2.0047,-2.0049,-2.0084,-2.0079,-2.0104,-2.0113,-2.012,-2.0126,-2.0145,-2.0156,-2.004,-2.004,-2.004,0,0,-2.017,-2.0153,-2.016,-2.0152,-2.0142,-2.0151,-2.0101,-2.0113,-2.012,-2.0069,-2.0087,-2.0074,-2.0061,-2.009,-2.0101,-2.0081,-2.0156,-2.0126,-2.0133,-2.0134,-2.0151,-2.0162,-2.0172,-2.0043,-2.0042,-2.0042,0,0,-2.0242,-2.0229,-2.0251,-2.0242,-2.0227,-2.0206,-2.0211,-2.0188,-2.0178,-2.0195,-2.0158,-2.0165,-2.0172,-2.0165,-2.0162,-2.0231,-2.0203,-2.0233,-2.0281,-2.03,-2.0309,-2.0317,-2.0343,-2.0353,-2.0238,-2.0238,-2.0238,0,-2.0289,-2.0301,-2.0266,-2.028,-2.0278,-2.0232,-2.0255,-2.0248,-2.0235,-2.0235,-2.0212,-2.022,-2.0208,-2.0235,-2.0252,-2.025,-2.0257,-2.0235,-2.0311,-2.0318,-2.0325,-2.035,-2.0359,-2.0242,-2.0241,-2.0241,-2.024,0,-2.0361,-2.037,-2.0389,-2.0378,-2.0378,-2.0396,-2.0365,-2.0369,-2.0346,-2.0328,-2.0347,-2.0331,-2.0329,-2.0333,-2.0311,-2.0357,-2.0345,-2.0317,-2.0278,-2.0341,-2.0363,-2.0372,-2.0247,-2.0246,-2.0244,-2.0244,0,0,-2.0473,-2.0442,-2.045,-2.0444,-2.0424,-2.0431,-2.0447,-2.0445,-2.045,-2.0442,-2.0457,-2.0463,-2.0437,-2.0434,-2.0411,-2.0427,-2.0485,-2.0397,-2.0396,-2.0415,-2.0537,-2.056,-2.0571,-2.0466,-2.0467,-2.0469,-2.0539,0,-2.0541,-2.0568,-2.0537,-2.057,-2.0579,-2.0535,-2.055,-2.054,-2.0523,-2.0529,-2.051,-2.0516,-2.0481,-2.0479,-2.0493,-2.0475,-2.0509,-2.0469,-2.048,-2.0481,-2.0486,-2.0582,-2.0606,-2.0673,-2.0547,-2.0548,-2.0549,0,-2.0624,-2.0621,-2.0655,-2.0634,-2.0636,-2.065,-2.0646,-2.0651,-2.0639,-2.0625,-2.0622,-2.0594,-2.061,-2.057,-2.0592,-2.0566,-2.0568,-2.056,-2.0562,-2.0563,-2.052,-2.0588,-2.0693,-2.0704,-2.0563,-2.0562,-2.0561,0,-2.0705,-2.0708,-2.0729,-2.0726,-2.0701,-2.0712,-2.0702,-2.0688,-2.0689,-2.0685,-2.0686,-2.0685,-2.0684,-2.0684,-2.0656,-2.063,-2.0683,-2.0641,-2.0673,-2.0674,-2.0688,-2.0688,-2.0797,-2.0687,-2.0687,-2.0686,-2.0686,0,-2.0785,-2.0809,-2.0765,-2.0779,-2.0804,-2.0768,-2.0794,-2.078,-2.0768,-2.0778,-2.074,-2.0751,-2.0712,-2.0719,-2.0698,-2.072,-2.072,-2.0711,-2.0705,-2.0715,-2.0717,-2.0717,-2.0713,-2.0689,-2.0688,-2.0688,-2.0687,0,-2.088,-2.0852,-2.0873,-2.0847,-2.0841,-2.0861,-2.084,-2.0852,-2.0832,-2.0846,-2.0847,-2.0818,-2.0824,-2.0796,-2.0797,-2.0782,-2.0817,-2.0802,-2.0821,-2.0817,-2.0853,-2.085,-2.0968,-2.0982,-2.0861,-2.0862,-2.0863,0,-2.0934,-2.0951,-2.0927,-2.0931,-2.0924,-2.093,-2.0931,-2.0897,-2.0899,-2.0887,-2.0901,-2.0904,-2.0904,-2.0917,-2.0896,-2.0897,-2.0883,-2.0924,-2.0883,-2.0894,-2.0886,-2.0886,-2.0888,-2.0934,-2.0935,-2.0936,-2.0937,0,-2.1033,-2.1019,-2.1021,-2.1019,-2.102,-2.1017,-2.1011,-2.1017,-2.098,-2.0985,-2.099,-2.0991,-2.0992,-2.0997,-2.0993,-2.0984,-2.0956,-2.095,-2.0958,-2.0969,-2.098,-2.0977,-2.0846,-2.0948,-2.0947,-2.0946,-2.0945,-2.0945,-2.111,-2.1124,-2.111,-2.1114,-2.1105,-2.1101,-2.1111,-2.1093,-2.1097,-2.1095,-2.1075,-2.1085,-2.1073,-2.1066,-2.1059,-2.1067,-2.1048,-2.1059,-2.1063,-2.1066,-2.1073,-2.0978,-2.1066,-2.1066,-2.1066,-2.1066,-2.1065,0,-2.1209,-2.1198,-2.1202,-2.1195,-2.1198,-2.1169,-2.1161,-2.1167,-2.1176,-2.1167,-2.1168,-2.1176,-2.118,-2.1159,-2.116,-2.1171,-2.1158,-2.1173,-2.1172,-2.1171,-2.1089,-2.1083,-2.1183,-2.1183,-2.1183,-2.1183,-2.1183,-2.1183,-2.1261,-2.1283,-2.1266,-2.1284,-2.1272,-2.1282,-2.128,-2.1276,-2.1269,-2.1278,-2.1281,-2.1267,-2.1254,-2.1254,-2.1257,-2.1251,-2.1254,-2.1274,-2.1263,-2.1188,-2.1177,-2.1166,-2.116,-2.1274,-2.1274,-2.1344,-2.1345,-2.1345]},{"header":{"parameterUnit":"m.s-1","parameterCategory":1,"la1":30.2991,"la2":30.254,"lo1":-89.0895,"lo2":-89.0444,"dy":0.0017,"dx":0.0017,"nx":28,"ny":28,"refTime":"2024-10-15T21:00:00:Z","depth":0,"parameterNumber":3,"parameterNumberName":"V-component_of_WINDS"},"data":[0,0,0,0,0,0,0,0,0,0,0,0,0,0,0,0,0,0,0,0,0,0,0,0,0,0,0,0,0,0,0,0,0,0,0,0,0,0,0,0,0,0,0,0,0,0,0,0,0,0,0,0,0,0,0,0,0,0,-1.8801,-1.8801,0,-1.8845,-1.8846,-1.8846,-1.8852,-1.8851,-1.8851,-1.8851,-1.8896,-1.8897,-1.8899,0,0,0,0,0,0,0,0,0,0,0,0,0,-1.8719,-1.8721,-1.8801,-1.8801,-1.8802,-1.8845,-1.8846,-1.8846,-1.8852,-1.8851,-1.8851,-1.885,-1.8895,-1.8897,-1.8899,0,0,0,0,0,0,0,0,0,0,0,0,0,-1.8758,-1.8721,-1.88,-1.881,-1.8811,-1.8845,-1.8846,-1.8847,-1.8852,-1.8851,-1.8851,-1.885,-1.8894,-1.8897,-1.8899,-1.8927,0,0,-1.8907,-1.8908,0,0,0,0,0,0,0,0,-1.8756,-1.8761,-1.8808,-1.8809,-1.8811,-1.8842,-1.8834,-1.8874,-1.8852,-1.8836,-1.8851,-1.885,-1.8878,-1.8882,-1.8892,-1.8929,-1.8931,-1.8907,-1.8908,-1.8909,-1.891,0,0,0,0,0,0,0,-1.8754,-1.876,-1.8818,-1.8808,-1.881,-1.8811,-1.8816,-1.8841,-1.886,-1.8838,-1.8838,-1.8844,-1.8879,-1.889,-1.8893,-1.8932,-1.8907,-1.8909,-1.891,-1.8911,-1.8995,-1.8996,0,0,0,0,0,0,-1.8749,-1.8757,-1.8817,-1.882,-1.8781,-1.8813,-1.8819,-1.8833,-1.886,-1.8864,-1.8844,-1.8844,-1.8886,-1.889,-1.8895,-1.893,-1.8909,-1.8911,-1.8913,-1.8995,-1.8996,-1.8996,0,0,0,0,0,0,-1.8747,-1.8754,-1.8815,-1.8789,-1.8796,-1.8816,-1.8831,-1.8834,-1.8845,-1.8865,-1.8868,-1.8851,-1.8885,-1.8891,-1.8919,-1.8932,-1.8913,-1.8915,-1.8994,-1.8995,-1.8996,-1.9001,0,0,0,0,0,0,-1.8745,-1.8754,-1.8765,-1.8789,-1.8798,-1.8839,-1.8832,-1.8835,-1.8849,-1.8849,-1.8873,-1.8876,-1.8885,-1.8916,-1.8922,-1.8935,-1.8917,-1.8993,-1.8994,-1.8996,-1.9,-1.9002,-1.9005,0,0,0,0,0,-1.8742,-1.8764,-1.8765,-1.8772,-1.8812,-1.884,-1.8845,-1.8855,-1.885,-1.8861,-1.8874,-1.8875,-1.8929,-1.8919,-1.8925,-1.8939,-1.8992,-1.8994,-1.8996,-1.8999,-1.9002,-1.9004,0,0,0,0,0,0,-1.874,-1.8767,-1.8769,-1.8799,-1.8817,-1.8841,-1.8855,-1.8858,-1.8878,-1.8877,-1.8889,-1.8894,-1.8922,-1.8933,-1.8921,-1.8968,-1.896,-1.8963,-1.896,-1.8963,-1.8966,-1.8963,-1.8919,0,0,0,0,0,-1.8743,-1.8764,-1.8786,-1.8811,-1.882,-1.8836,-1.8848,-1.8855,-1.8874,-1.8882,-1.8897,-1.8915,-1.8937,-1.895,-1.8971,-1.9001,-1.9007,-1.9014,-1.9016,-1.9018,-1.9021,-1.904,-1.9044,-1.9002,-1.9002,-1.9002,0,0,-1.875,-1.8767,-1.8779,-1.8811,-1.8826,-1.8847,-1.8842,-1.8865,-1.8881,-1.8885,-1.8913,-1.8925,-1.8946,-1.8976,-1.899,-1.8986,-1.9034,-1.902,-1.9022,-1.9024,-1.9042,-1.9046,-1.9049,-1.9004,-1.9003,-1.9003,0,0,-1.8773,-1.8788,-1.8811,-1.8826,-1.8848,-1.8859,-1.8864,-1.8888,-1.8896,-1.8924,-1.8928,-1.8947,-1.8983,-1.8999,-1.9011,-1.9041,-1.9043,-1.9047,-1.906,-1.9077,-1.9081,-1.9084,-1.9096,-1.91,-1.905,-1.905,-1.905,0,-1.8778,-1.8811,-1.8822,-1.8845,-1.8859,-1.8864,-1.8887,-1.8901,-1.8929,-1.8939,-1.8934,-1.8981,-1.8995,-1.9029,-1.9037,-1.9046,-1.9053,-1.9045,-1.9079,-1.9082,-1.9085,-1.9097,-1.9101,-1.905,-1.905,-1.905,-1.905,0,-1.8817,-1.884,-1.8855,-1.8884,-1.8899,-1.8922,-1.8936,-1.8951,-1.8956,-1.8967,-1.8996,-1.9014,-1.9039,-1.9047,-1.9052,-1.9082,-1.908,-1.9077,-1.9069,-1.909,-1.9101,-1.9105,-1.9051,-1.9051,-1.9051,-1.9051,0,0,-1.8841,-1.8875,-1.8881,-1.8894,-1.892,-1.8938,-1.8961,-1.8986,-1.8999,-1.9018,-1.9038,-1.9069,-1.9067,-1.9081,-1.9087,-1.9103,-1.9127,-1.9099,-1.9099,-1.9105,-1.9164,-1.9167,-1.9172,-1.9128,-1.9129,-1.913,-1.9163,0,-1.8869,-1.8912,-1.8922,-1.8958,-1.898,-1.8985,-1.9006,-1.9024,-1.9035,-1.9055,-1.9066,-1.9089,-1.9083,-1.9092,-1.9108,-1.9121,-1.914,-1.9119,-1.9149,-1.9149,-1.9145,-1.9178,-1.9181,-1.9211,-1.9167,-1.9168,-1.9168,0,-1.8907,-1.8928,-1.8967,-1.8991,-1.9001,-1.9019,-1.9043,-1.9062,-1.9082,-1.9089,-1.9106,-1.9111,-1.9136,-1.9125,-1.916,-1.9146,-1.9158,-1.9167,-1.9168,-1.9173,-1.9161,-1.9185,-1.9221,-1.9226,-1.9175,-1.9174,-1.9174,0,-1.8923,-1.8961,-1.899,-1.9,-1.9029,-1.9042,-1.9054,-1.9074,-1.9088,-1.9109,-1.9119,-1.9142,-1.9155,-1.9173,-1.9184,-1.9175,-1.9219,-1.9209,-1.9226,-1.9226,-1.9236,-1.9236,-1.9277,-1.9241,-1.9241,-1.9241,-1.9241,0,-1.8954,-1.8978,-1.8997,-1.9015,-1.9042,-1.9054,-1.908,-1.9092,-1.911,-1.9131,-1.9135,-1.9154,-1.9167,-1.9188,-1.9197,-1.9226,-1.9231,-1.9238,-1.924,-1.9239,-1.9238,-1.9248,-1.9247,-1.9242,-1.9242,-1.9242,-1.9242,0,-1.8977,-1.8991,-1.9023,-1.9047,-1.9053,-1.9073,-1.9093,-1.9111,-1.9122,-1.9148,-1.9154,-1.9172,-1.9197,-1.9209,-1.924,-1.9246,-1.9279,-1.9279,-1.9272,-1.9274,-1.9291,-1.929,-1.9341,-1.9349,-1.9307,-1.9307,-1.9307,0,-1.8997,-1.9016,-1.9042,-1.9057,-1.907,-1.9092,-1.9107,-1.9119,-1.9135,-1.916,-1.9175,-1.92,-1.9221,-1.9261,-1.9276,-1.93,-1.9302,-1.9318,-1.9305,-1.9303,-1.9304,-1.9304,-1.9306,-1.9321,-1.9321,-1.9321,-1.9322,0,-1.9031,-1.9037,-1.9059,-1.9084,-1.9102,-1.9122,-1.9142,-1.9153,-1.9168,-1.9185,-1.9211,-1.9227,-1.9259,-1.9285,-1.931,-1.9322,-1.9325,-1.9325,-1.9331,-1.933,-1.9327,-1.9331,-1.928,-1.9325,-1.9324,-1.9324,-1.9324,-1.9324,-1.9055,-1.9072,-1.9094,-1.9119,-1.9135,-1.9153,-1.9171,-1.9185,-1.9207,-1.9234,-1.9239,-1.9267,-1.9288,-1.9322,-1.9335,-1.9357,-1.9354,-1.9361,-1.9364,-1.9366,-1.9368,-1.9321,-1.9361,-1.9361,-1.9361,-1.9361,-1.9361,0,-1.9091,-1.9105,-1.9128,-1.9156,-1.9175,-1.9176,-1.9197,-1.9214,-1.9239,-1.9258,-1.9279,-1.9309,-1.9334,-1.9351,-1.9376,-1.9391,-1.9393,-1.9397,-1.9397,-1.94,-1.9368,-1.9362,-1.9395,-1.9395,-1.9395,-1.9395,-1.9395,-1.9395,-1.9112,-1.9143,-1.9151,-1.919,-1.9204,-1.9232,-1.9244,-1.9261,-1.9277,-1.9311,-1.9332,-1.9343,-1.9362,-1.9388,-1.9411,-1.9416,-1.9426,-1.943,-1.9435,-1.9406,-1.9402,-1.9399,-1.9393,-1.9432,-1.9432,-1.9465,-1.9466,-1.9466]}]]